Regional Weather Roundup
Issued by NWS

Home | Current Version | Previous Version | Text Only | Print | Product List | Glossary On
Versions: 1 2 3 4 5 6 7 8 9 10 11 12 13 14 15 16 17 18 19 20 21 22 23 24 25 26 27 28 29 30 31 32 33 34 35 36 37 38 39 40 41 42 43 44 45 46 47 48 49 50
000
ASUS43 KMKX 222059
RWRWI

WISCONSIN REGIONAL WEATHER ROUNDUP
NATIONAL WEATHER SERVICE MILWAUKEE/SULLIVAN WI
400 PM CDT SUN APR 22 2018

NOTE: "FAIR" INDICATES FEW OR NO CLOUDS BELOW 12,000 FEET WITH NO
SIGNIFICANT WEATHER AND/OR OBSTRUCTIONS TO VISIBILITY.

WIZ001-002-006>008-014>016-023>028-222200-
NORTHWEST WISCONSIN

CITY           SKY/WX    TMP DP  RH WIND       PRES   REMARKS
SUPERIOR ARPT  FAIR      51  29  41 NE7       30.26F
ASHLAND        FAIR      62  22  21 VRB5      30.27F
HAYWARD        FAIR      60  29  30 S10G18    30.27F
SIREN          FAIR      62  26  26 S8        30.28F
CUMBERLAND     FAIR      54  30  40 CALM      30.29F
RICE LAKE      FAIR      60  31  33 SE5       30.30F
CHETEK         FAIR      61  33  34 S8        30.28F
LADYSMITH      FAIR      61  32  33 S10       30.30F
EAU CLAIRE     FAIR      63  30  28 S7        30.27F
MENOMONIE      FAIR      64  31  28 E9        30.28F
NEW RICHMOND   FAIR      62  32  33 S9        30.29F
OSCEOLA        FAIR      63  35  35 SE8       30.30F
$$

WIZ003>005-009-010-017-018-222200-
NORTH CENTRAL WISCONSIN

CITY           SKY/WX    TMP DP  RH WIND       PRES   REMARKS
MANITOWISH WTR FAIR      57  21  25 S5        30.28F
ARBOR VITAE    FAIR      59  21  22 SE8       30.27F
WOODRUFF       FAIR      59  21  22 SE8       30.27F
RHINELANDER    FAIR      60  24  25 S8        30.29F
EAGLE RIVER    FAIR      58  14  18 SW7       30.27F
LAND O LAKES   FAIR      61  10  13 S6        30.28F
PHILLIPS       FAIR      59  28  30 S9        30.27F
TOMAHAWK       FAIR      59  20  22 CALM      30.30F
MEDFORD        FAIR      55  29  37 SE3       30.31F
MERRILL          N/A     60  26  27 S8        30.30F
$$

WIZ029-030-035-036-043>047-222200-
CENTRAL WISCONSIN

CITY           SKY/WX    TMP DP  RH WIND       PRES   REMARKS
WAUSAU         FAIR      59  21  23 E6        30.29F
MOSINEE        MOSUNNY   57  25  28 SE10      30.31F
MARSHFIELD     FAIR      56  27  32 SE7       30.30F
STEVENS POINT  FAIR      55  21  26 SE6       30.33S
WAUPACA        FAIR      59  13  16 E8        30.33F
WAUTOMA        FAIR      58  20  22 SE8       30.31F
WISC RAPIDS    FAIR      58  20  22 VRB7G16   30.31F
CAMP DOUGLAS   FAIR      61  26  26 E5        30.29F
$$

WIZ011>013-019>022-031-037>040-048>050-222200-
NORTHEAST WISCONSIN

CITY           SKY/WX    TMP DP  RH WIND       PRES   REMARKS
ANTIGO         FAIR      55  28  34 CALM      30.32F
SHAWANO        FAIR      58  22  25 SE7       30.33F
OCONTO         FAIR      56  21  26 S7        30.34F
STURGEON BAY   FAIR      56  22  26 SW7       30.35F
GREEN BAY      FAIR      56  27  32 SE3       30.34F
MANITOWOC      FAIR      54  28  36 S5        30.35F
APPLETON       MOSUNNY   57  19  23 CALM      30.32F
CLINTONVILLE   FAIR      56  16  21 S5        30.33F
OSHKOSH        FAIR      57  27  31 NE7       30.32F
$$

WIZ032>034-041-042-053>061-222200-
SOUTHWEST WISCONSIN

CITY           SKY/WX    TMP DP  RH WIND       PRES   REMARKS
LA CROSSE      FAIR      64  28  25 E7        30.28F
SPARTA         FAIR      63  29  28 E3G10     30.30F
VIROQUA        FAIR      60  32  34 E7        30.28F
BOSCOBEL       FAIR      67  23  19 NE8       30.26F
PRAIRIE DU CHI FAIR      65  20  17 E7        30.25F
PLATTEVILLE    FAIR      64  32  30 E10       30.26F
$$

WIZ056-057-062-063-064-067-068-222200-
SOUTH CENTRAL WISCONSIN

CITY           SKY/WX    TMP DP  RH WIND       PRES   REMARKS
REEDSBURG      FAIR      61  21  21 E5        30.28F
BARABOO/DELLS  FAIR      60  20  21 E9        30.29F
LONE ROCK      NOT AVBL
MINERAL POINT  FAIR      64  28  25 E8        30.26F
MADISON        PTSUNNY   62  31  31 E13       30.28F
MIDDLETON      FAIR      63  28  26 E7        30.28F
WATERTOWN      FAIR      58  30  34 E8        30.30F
MONROE         FAIR      63  30  29 E10G16    30.26F
JANESVILLE     MOSUNNY   64  25  22 E14G20    30.27F
$$

WIZ051-052-058>065-066-070>072-222200-
SOUTHEAST WISCONSIN

CITY           SKY/WX    TMP DP  RH WIND       PRES   REMARKS
MILWAUKEE      PTSUNNY   56  26  31 NE10      30.32F
WAUKESHA       SUNNY     55  27  33 E12       30.32F
MILWAUKEE/TIMM SUNNY     54  18  24 E7        30.34F
RACINE         FAIR      54  26  34 NE9       30.32F
BURLINGTON     FAIR      59  25  27 E12G18    30.30F
KENOSHA        FAIR      59  27  29 E15       30.30F
FOND DU LAC    FAIR      56  28  34 NE8       30.32F
SHEBOYGAN      FAIR      56  30  37 VRB5      30.33F
WEST BEND      FAIR      57  25  28 E9        30.33F
JUNEAU         FAIR      55  30  39 E5        30.32F
$$

LSZ147-162-222200-
LAKE SUPERIOR

STATION/POSITION TIME  TEMP    WIND        PRES    WAVE
                       AIR SEA DIR/SP/G            HT/PER
                 (UTC) (F)     (DEG/KT/KT) (MB)    (FT/S)
DEVILS ISLAND    2000   39      60/  5/  6 1026.8F
SAXON HARBOR     2030   42     340/  2/  3 1024.7F
$$

LMZ867-665-643>646-222200-
LAKE MICHIGAN

STATION/POSITION TIME  TEMP    WIND        PRES    WAVE
                       AIR SEA DIR/SP/G            HT/PER
                 (UTC) (F)     (DEG/KT/KT) (MB)    (FT/S)
NORTHPORT PIER   2040   42                 1027.8F
KEWAUNEE LAKESHO 2030   47      70/  2/  3 1027.2F
SHEBOYGAN LAKESH 2000   40      20/  4/  5 1028.4F
PORT WASHINGTON  2040   44      50/  4/  5 1028.4F
MILWAUKEE LAKESH 2030   45      30/  9/  9   N/A
KENOSHA   LAKESH 2000   41                 1026.8
$$

TC  - TEMPERATURE IN CELSIUS
VSB - VISIBILITY IN STATUTE MILES
WCI - WIND CHILL INDEX
HX  - HEAT INDEX




USA.gov is the U.S. government's official web portal to all federal, state and local government web resources and services.